Location: ???????
(55.4362°N, 38.1183°E)
Time: 02:31:15
(UTC+00:00)

USA 229 DEB - Pass Details

Date: 17 June 2021
Orbit: 955 x 1257 km, 63.4° (Epoch: 23 July)

Event Time Altitude Azimuth Distance (km) Brightness Sun altitude
Exits shadow 22:15:06 13° 184° (S) 2,525 5.0 -10.5°
Maximum altitude 22:20:17 39° 121° (ESE) 1,506 4.4 -10.4°
Drops below altitude 10° 22:26:33 10° 56° (NE) 2,933 6.7 -10.2°
Sets 22:29:28 0° 49° (NE) 3,941 7.7 -10.1°
